Weather History for Valentine, NE

Change the Weather History Date:

Monday, April 14, 2014

  Actual Average Record
Temperature  
Mean Temperature 29 °F 46 °F  
Max Temperature 42 °F 60 °F 89 °F (2003)
Min Temperature 16 °F 32 °F 10 °F (1905)
Degree Days  
Heating Degree Days 36 19  
Month to date heating degree days 307 300  
Since 1 July heating degree days 6754 6429  
Cooling Degree Days 0 0  
Month to date cooling degree days 0 0  
Year to date cooling degree days 0 0  
Moisture  
Dew Point 14 °F    
Average Humidity 56    
Maximum Humidity 84    
Minimum Humidity 27    
Precipitation  
Precipitation T in 0.07 in 1.13 in (1998)
Month to date precipitation 0.43 0.86  
Year to date precipitation 1.58 2.67  
Snow  
Snow T in 0.20 in 4.40 in (1905)
Month to date snowfall 3.3 2.5  
Since 1 July snowfall 34.8 31.1  
Snow Depth 0.00 in    
Sea Level Pressure  
Sea Level Pressure 30.25 in    
Wind  
Wind Speed 12 mph (NW)    
Max Wind Speed 29 mph    
Max Gust Speed 38 mph    
Visibility 10 miles    
Events      
T = Trace of Precipitation, MM = Missing Value Source: NWS Daily Summary

Daily Weather History Graph

Daily Weather History Graph

Search for Another Location

Airport:

Trip Planner

Search our weather history database for the weather conditions in past years. The results will help you decide how hot, cold, wet, or windy it might be!

Date:

Astronomy

Apr. 14, 2014 Rise Set
Actual Time 7:02 AM CDT 8:23 PM CDT
Civil Twilight 6:32 AM CDT 8:52 PM CDT
Nautical Twilight 5:57 AM CDT 9:28 PM CDT
Astronomical Twilight 5:20 AM CDT 10:05 PM CDT
Moon 8:03 PM CDT (4/14) 6:36 AM CDT (4/14)
Length of Visible Light 14h 20m
Length of Day
13h 21m
Full, 100% of the Moon is Illuminated
Apr 14
Full
Apr 15
Full
Apr 22
Last Quarter
Apr 29
New
May 6
First Quarter

Hourly Weather History & Observations

Time (CDT) Temp. Windchill Dew Point Humidity Pressure Visibility Wind Dir Wind Speed Gust Speed Precip Events Conditions
12:52 AM 28.0 °F 14.9 °F 15.1 °F 58% 30.30 in 10.0 mi North 19.6 mph 23.0 mph N/A   Mostly Cloudy
1:52 AM 27.0 °F 16.1 °F 14.0 °F 58% 30.30 in 10.0 mi North 12.7 mph - N/A   Clear
2:52 AM 26.1 °F 17.6 °F 15.1 °F 63% 30.31 in 10.0 mi NNW 8.1 mph - N/A   Clear
3:52 AM 24.1 °F 17.0 °F 14.0 °F 65% 30.30 in 10.0 mi NW 5.8 mph - N/A   Clear
4:52 AM 19.9 °F 14.9 °F 14.0 °F 78% 30.30 in 10.0 mi WNW 3.5 mph - N/A   Clear
5:52 AM 19.0 °F 12.3 °F 14.0 °F 81% 30.30 in 10.0 mi West 4.6 mph - N/A   Clear
6:52 AM 17.1 °F 8.7 °F 12.0 °F 81% 30.30 in 10.0 mi SSW 5.8 mph - N/A   Clear
7:52 AM 19.9 °F 10.1 °F 15.1 °F 81% 30.29 in 10.0 mi SW 8.1 mph - N/A   Clear
8:52 AM 26.1 °F 15.6 °F 15.1 °F 63% 30.27 in 10.0 mi WSW 11.5 mph - N/A   Scattered Clouds
9:52 AM 32.0 °F 22.5 °F 17.6 °F 55% 30.17 in 10.0 mi WNW 12.7 mph - N/A   Partly Cloudy
10:52 AM 36.0 °F 26.7 °F 21.0 °F 55% 30.25 in 10.0 mi WNW 15.0 mph 25.3 mph N/A   Mostly Cloudy
11:52 AM 37.9 °F 28.5 °F 21.0 °F 51% 30.24 in 10.0 mi WNW 17.3 mph 23.0 mph N/A   Mostly Cloudy
12:52 PM 37.4 °F 26.1 °F 21.2 °F 52% 30.17 in 9.0 mi NW 24.2 mph 31.1 mph N/A   Overcast
1:52 PM 39.9 °F 29.5 °F 15.1 °F 36% 30.22 in 10.0 mi NW 24.2 mph 33.4 mph 0.00 in   Mostly Cloudy
2:52 PM 42.1 °F 32.1 °F 10.9 °F 28% 30.21 in 10.0 mi NNW 25.3 mph 35.7 mph N/A   Scattered Clouds
3:52 PM 41.0 °F 31.4 °F 10.0 °F 28% 30.21 in 10.0 mi NNW 21.9 mph 38.0 mph N/A   Clear
4:52 PM 41.0 °F 31.1 °F 10.0 °F 28% 30.21 in 10.0 mi NNW 23.0 mph 33.4 mph N/A   Clear
5:52 PM 39.9 °F 30.5 °F 9.0 °F 28% 30.22 in 10.0 mi NNW 19.6 mph 32.2 mph N/A   Clear
6:52 PM 37.9 °F 27.6 °F 9.0 °F 30% 30.24 in 10.0 mi NNW 20.7 mph 27.6 mph N/A   Clear
7:52 PM 36.0 °F 27.1 °F 9.0 °F 33% 30.23 in 10.0 mi North 13.8 mph - N/A   Clear
8:52 PM 30.9 °F 25.2 °F 10.9 °F 43% 30.24 in 10.0 mi NNE 5.8 mph - N/A   Clear
9:52 PM 28.0 °F 24.2 °F 12.9 °F 53% 30.24 in 10.0 mi ENE 3.5 mph - N/A   Clear
10:52 PM 25.0 °F 20.7 °F 16.0 °F 69% 30.23 in 10.0 mi ESE 3.5 mph - N/A   Clear
11:52 PM 25.0 °F 20.7 °F 14.0 °F 63% 30.22 in 10.0 mi East 3.5 mph - N/A   Clear